Location: Tamazert
(32.6352°N, 5.2072°W)
Time: 16:35:48
(UTC+00:00)

CZ-4C R/B - Pass Details

Date: 22 May 2022
Orbit: 462 x 625 km, 98.1° (Epoch: 28 June)

Event Time Altitude Azimuth Distance (km) Brightness Sun altitude
Rises 04:38:33 0° 166° (SSE) 2,484 6.5 -8.2°
Reaches altitude 10° 04:40:33 10° 166° (SSE) 1,624 5.6 -7.8°
Maximum altitude 04:44:01 86° 79° (E) 486 3.1 -7.2°
Drops below altitude 10° 04:47:39 10° 349° (N) 1,697 6.1 -6.5°
Sets 04:49:47 0° 349° (NNW) 2,610 7.0 -6.1°
